Location: Unspecified
(51.0950°N, 12.9690°E)
Time: 05:18:54
(UTC+00:00)

NANOSAT C BR1 - Pass Details

Date: 27 April 2024
Orbit: 556 x 561 km, 98.1° (Epoch: 19 May)

Event Time Altitude Azimuth Distance (km) Brightness Sun altitude
Rises 02:09:25 0° 25° (NNE) 2,774 ? -13.7°
Reaches altitude 10° 02:11:59 10° 42° (NE) 1,873 ? -13.4°
Maximum altitude 02:15:08 21° 93° (E) 1,285 ? -13.0°
Drops below altitude 10° 02:18:15 10° 144° (SE) 1,862 ? -12.7°
Sets 02:20:47 0° 160° (SSE) 2,753 ? -12.4°
